User: anonymous   Login
Location: Te Maire Creek
(41.1333°S, 175.9167°E)
Time: 19:15:21
(UTC+00:00)
Language:

Okean 1-7 Rocket - Orbit

View from above orbital plane
View from above orbital plane
View from above satellite
View from above satellite

Ground track
Ground track

The orbit data is extracted from the following two-line orbital elements,

1 23318U 94066B   24199.48694791  .00000738  00000-0  94209-4 0  9991
2 23318  82.5417 288.3818 0024236  46.1316 314.1894 14.79913749604815
Epoch (UTC): 17 July 2024 11:41:12
Eccentricity: 0.0024236
inclination: 82.5417°
perigee height: 612 km
apogee height: 646 km
right ascension of ascending node: 288.3818°
argument of perigee: 46.1316°
revolutions per day: 14.79913749
mean anomaly at epoch: 314.1894°
orbit number at epoch: 60481

The dashed part of the orbit path shows where the satellite is in the earth's shadow,  

DLR